Vorticity
5 4 3 3 2 3 3 5 5 5 3 3 3 3 3 3 3 3 3 4 5 5 5 4 4 3 4 6 8 8 10 10 5 8 3 10 7 6 5 5 4 5 4
10 8 8 4 5 3 4 3 4 4 2 3 3 3 3 2 3 2 2 3 3 3 5 5 4 3 3 3 4 6 9 8 8 8 8 8 7 5 3 7 7 5 4
8 8 10 7 5 4 3 3 3 3 4 3 4 2 3 3 2 2 3 3 3 3 3 4 4 4 3 3 3 3 4 7 9 9 8 8 8 7 5 5 6 7 6
8 8 8 7 7 8 9 8 6 6 5 4 2 2 2 4 3 2 2 2 3 3 3 3 3 3 4 3 3 3 3 4 5 8 9 9 8 8 8 9 6 6 6
7 5 4 4 3 3 4 4 5 5 6 7 6 6 5 4 3 3 3 4 3 4 3 2 2 3 3 3 3 4 3 4 4 4 6 8 9 9 9 7 11 9 7
5 6 4 4 4 3 4 4 4 5 5 5 6 5 5 4 5 6 6 4 3 3 3 1 2 2 2 2 3 3 4 4 4 4 4 5 6 8 18 4 6 8 8
3 5 5 3 3 4 4 5 6 6 5 5 5 6 6 7 7 6 4 4 5 4 4 4 3 2 3 3 3 3 3 3 3 4 3 4 4 4 13 4 9 8 8
7 4 4 4 4 4 5 4 3 4 4 4 4 4 5 5 6 7 7 7 7 7 7 7 5 4 5 4 4 5 3 3 3 3 4 3 3 4 4 6 6 7 8
4 4 3 4 5 4 3 4 5 5 5 5 6 7 8 9 9 10 10 10 10 10 9 8 9 8 6 5 4 4 5 5 4 2 3 3 3 3 3 3 8 5 7
3 3 4 4 3 4 5 5 4 4 6 7 8 8 7 7 6 5 6 5 5 5 5 5 6 7 9 8 7 4 3 3 4 4 3 3 3 4 4 4 3 3 4
3 4 3 3 5 6 4 4 5 8 9 8 7 6 6 5 5 5 5 5 5 5 5 5 5 5 5 5 6 10 8 6 4 4 3 3 3 3 4 4 4 4 3
4 3 4 5 5 4 5 6 8 7 6 6 5 5 5 5 5 4 4 4 5 5 5 5 5 5 4 4 5 4 6 8 8 7 7 4 3 3 3 3 4 4 5
3 4 5 5 5 5 6 7 7 6 5 5 5 5 4 4 4 4 5 5 6 7 8 8 8 7 7 6 6 5 5 5 7 8 7 6 7 4 4 4 3 3 4
5 5 5 4 5 6 7 7 6 5 5 5 4 4 4 5 5 5 6 9 10 11 11 11 11 11 12 11 9 9 8 7 6 5 8 8 14 10 7 3 8 6 6
5 5 4 4 5 7 7 6 6 5 5 5 4 4 4 5 8 11 12 10 9 9 9 9 9 9 10 10 10 11 11 9 9 7 5 3 4 7 12 8 6 6 6
5 4 4 5 6 7 7 6 6 6 5 5 4 4 7 12 13 10 9 8 8 7 7 6 6 7 8 8 11 11 9 10 10 10 9 7 4 7 1 4 9 9 14
4 4 3 5 6 7 7 5 5 5 5 5 5 9 12 10 8 7 7 7 6 5 5 5 6 6 8 10 12 13 15 14 11 10 11 10 9 7 2 1 2 -0 -3
5 3 4 7 5 5 6 6 5 5 4 5 9 10 9 8 8 8 8 6 5 5 7 9 10 13 15 15 15 15 15 16 16 16 13 11 11 10 11 9 4 -1 7
2 5 6 7 5 5 5 6 5 4 5 9 11 9 9 8 8 7 5 4 7 10 14 16 16 14 14 14 14 15 14 14 14 14 14 14 13 11 10 10 11 10 8
4 6 5 7 8 7 6 4 4 6 11 10 9 8 7 6 6 4 6 13 16 18 16 14 14 11 10 10 12 11 11 13 14 16 17 17 17 16 14 12 12 12 12
5 5 8 9 7 5 5 8 11 11 10 8 8 6 6 5 6 9 12 13 14 14 13 12 11 10 9 10 11 9 9 8 8 9 12 16 17 16 16 15 14 12 13
8 10 7 3 6 10 11 11 9 9 7 6 5 4 5 7 9 12 13 13 12 11 10 10 10 9 8 8 9 11 10 10 12 12 10 8 11 13 15 14 14 16 17
10 5 7 9 13 13 12 12 8 7 6 4 4 6 9 9 11 11 10 10 9 9 8 8 8 8 8 8 7 7 9 9 6 12 10 8 9 9 7 7 10 14 13
7 11 12 12 10 8 6 6 5 5 4 7 9 10 9 11 10 10 9 9 9 9 9 9 9 9 9 8 7 7 8 8 10 10 13 11 9 8 8 8 8 8 8
12 12 11 7 5 5 6 7 7 8 10 9 9 10 10 10 9 10 9 8 9 10 9 8 9 9 9 8 8 8 7 8 9 12 9 13 12 9 10 11 11 10 9
12 6 5 3 4 7 10 12 13 12 10 10 10 9 8 8 8 9 9 9 9 9 10 9 9 9 9 11 10 9 9 8 8 9 11 9 9 8 8 8 7 10 9
Height
3179 3179 3179 3181 3182 3182 3183 3183 3184 3183 3183 3183 3182 3181 3180 3180 3179 3178 3177 3176 3175 3173 3172 3170 3169 3168 3167 3166 3165 3164 3163 3162 3161 3161 3160 3159 3159 3159 3159 3159 3159 3159 3159
3178 3179 3180 3181 3182 3182 3183 3183 3184 3184 3183 3183 3182 3181 3181 3180 3179 3178 3177 3176 3175 3174 3173 3171 3170 3169 3168 3167 3165 3164 3163 3162 3161 3160 3159 3159 3159 3158 3158 3158 3158 3158 3158
3178 3179 3180 3181 3182 3182 3182 3182 3183 3183 3183 3182 3182 3181 3180 3180 3179 3178 3177 3176 3175 3174 3173 3172 3170 3169 3168 3167 3166 3165 3164 3162 3161 3160 3158 3158 3157 3157 3157 3157 3157 3156 3156
3178 3179 3180 3180 3181 3181 3182 3182 3182 3182 3182 3181 3181 3180 3179 3179 3178 3177 3176 3175 3174 3173 3173 3171 3170 3169 3168 3167 3166 3165 3164 3162 3161 3160 3159 3158 3157 3156 3155 3155 3156 3155 3155
3179 3179 3180 3181 3181 3182 3182 3182 3182 3182 3181 3180 3180 3179 3178 3178 3177 3176 3175 3174 3173 3172 3171 3170 3169 3168 3167 3166 3165 3163 3162 3162 3161 3160 3158 3157 3156 3155 3154 3154 3154 3154 3154
3179 3180 3180 3181 3181 3182 3182 3181 3181 3180 3180 3179 3179 3178 3177 3176 3175 3174 3174 3172 3171 3171 3170 3169 3168 3167 3166 3165 3164 3163 3161 3160 3159 3158 3158 3156 3155 3154 3153 3152 3152 3152 3152
3178 3179 3180 3180 3180 3181 3180 3180 3180 3179 3178 3178 3178 3177 3176 3175 3174 3173 3172 3170 3169 3168 3168 3167 3165 3164 3164 3162 3161 3160 3160 3159 3157 3156 3156 3155 3154 3153 3152 3151 3151 3150 3150
3178 3179 3179 3179 3180 3179 3179 3178 3178 3178 3177 3176 3176 3175 3173 3172 3172 3171 3170 3169 3167 3166 3165 3164 3162 3161 3161 3160 3159 3158 3157 3156 3155 3154 3153 3153 3152 3151 3151 3150 3149 3148 3148
3178 3178 3178 3179 3178 3178 3177 3177 3177 3176 3176 3175 3174 3172 3171 3170 3169 3167 3166 3165 3164 3163 3162 3161 3160 3158 3157 3156 3155 3154 3153 3152 3152 3151 3151 3150 3150 3149 3149 3148 3148 3147 3146
3176 3176 3177 3177 3177 3176 3175 3175 3175 3174 3173 3172 3171 3170 3169 3167 3166 3165 3164 3162 3161 3159 3158 3157 3155 3154 3153 3152 3151 3149 3149 3149 3148 3147 3147 3146 3146 3145 3145 3145 3145 3144 3143
3175 3175 3175 3175 3174 3174 3174 3173 3172 3172 3171 3170 3168 3167 3166 3165 3163 3161 3160 3159 3157 3156 3154 3153 3151 3150 3149 3148 3147 3146 3145 3144 3143 3143 3142 3142 3141 3140 3141 3141 3140 3140 3140
3174 3174 3173 3173 3173 3172 3172 3171 3170 3169 3168 3167 3166 3165 3163 3162 3160 3158 3156 3154 3152 3151 3149 3148 3146 3145 3144 3142 3141 3140 3140 3139 3138 3138 3138 3137 3136 3136 3136 3136 3136 3136 3135
3172 3172 3172 3172 3171 3170 3169 3168 3167 3167 3165 3164 3163 3161 3160 3158 3156 3153 3151 3149 3147 3145 3144 3142 3141 3139 3137 3136 3135 3134 3133 3132 3132 3131 3131 3130 3129 3131 3132 3129 3130 3130 3130
3170 3170 3170 3170 3170 3169 3168 3167 3165 3164 3162 3161 3160 3158 3156 3154 3152 3149 3147 3144 3141 3139 3137 3135 3134 3132 3130 3129 3127 3127 3126 3125 3125 3125 3124 3123 3123 3123 3125 3124 3124 3124 3124
3168 3169 3169 3168 3168 3167 3166 3165 3164 3162 3160 3158 3156 3154 3152 3150 3147 3144 3141 3138 3135 3133 3132 3129 3127 3125 3124 3121 3120 3118 3118 3117 3116 3116 3117 3116 3116 3116 3116 3117 3117 3117 3118
3166 3167 3166 3166 3165 3164 3163 3162 3161 3159 3157 3155 3152 3150 3147 3144 3142 3139 3136 3134 3131 3128 3126 3124 3121 3119 3116 3114 3113 3110 3109 3109 3108 3108 3108 3109 3110 3110 3110 3110 3109 3111 3110
3164 3164 3163 3163 3162 3161 3159 3158 3157 3154 3152 3150 3148 3144 3142 3139 3136 3134 3132 3129 3126 3124 3121 3117 3114 3111 3109 3107 3105 3104 3101 3100 3099 3099 3099 3099 3100 3101 3101 3101 3102 3103 3103
3162 3161 3160 3160 3158 3157 3155 3154 3152 3150 3148 3145 3143 3140 3137 3134 3132 3129 3127 3124 3120 3117 3114 3110 3106 3103 3100 3098 3097 3095 3094 3093 3091 3090 3090 3089 3089 3089 3090 3092 3093 3093 3094
3158 3158 3157 3156 3154 3153 3151 3149 3147 3145 3143 3140 3138 3135 3132 3130 3126 3123 3120 3117 3113 3109 3106 3103 3099 3096 3095 3092 3090 3089 3087 3086 3085 3083 3081 3080 3080 3080 3081 3082 3083 3084 3085
3154 3154 3153 3152 3150 3148 3147 3145 3143 3141 3138 3135 3133 3131 3128 3125 3122 3118 3114 3110 3106 3103 3100 3097 3094 3090 3089 3088 3087 3084 3082 3080 3078 3078 3076 3075 3074 3073 3072 3073 3074 3075 3075
3151 3150 3148 3146 3145 3144 3142 3140 3138 3136 3134 3131 3129 3126 3123 3120 3116 3111 3107 3103 3099 3097 3095 3093 3090 3087 3083 3083 3083 3081 3077 3076 3074 3073 3071 3070 3068 3066 3065 3064 3065 3065 3066
3147 3145 3143 3142 3141 3139 3137 3135 3133 3131 3129 3126 3124 3121 3117 3113 3109 3106 3102 3097 3094 3092 3090 3088 3086 3084 3080 3078 3078 3078 3076 3073 3070 3068 3067 3065 3062 3061 3058 3058 3057 3056 3057
3142 3140 3139 3138 3136 3134 3132 3130 3129 3126 3124 3122 3119 3116 3112 3107 3103 3100 3096 3093 3089 3087 3085 3083 3081 3078 3077 3074 3072 3072 3071 3070 3067 3064 3062 3059 3057 3056 3053 3053 3052 3051 3050
3136 3135 3134 3132 3130 3129 3128 3126 3125 3123 3120 3117 3114 3110 3106 3102 3098 3094 3092 3088 3085 3083 3081 3079 3076 3073 3071 3069 3067 3064 3063 3063 3062 3063 3058 3055 3051 3050 3049 3047 3047 3045 3045
3131 3130 3129 3128 3127 3127 3125 3123 3120 3117 3114 3111 3107 3103 3100 3096 3093 3090 3087 3083 3081 3079 3077 3074 3071 3069 3066 3064 3061 3059 3057 3054 3054 3055 3055 3053 3047 3045 3043 3042 3041 3040 3039
3127 3127 3127 3127 3124 3122 3120 3116 3114 3111 3109 3106 3102 3099 3095 3092 3089 3086 3082 3080 3078 3076 3073 3070 3067 3065 3063 3060 3057 3054 3052 3050 3047 3045 3048 3046 3043 3039 3037 3035 3033 3033 3031